Presure
161 265 238 220 205 183 195 191 180 178 173 180 179 169 171 171 157 174 159 132 130 123 131 117 114 145 116 154 122 150 119 135 116 135 146 138 143 142 135 129 137 129 126 121 139
213 237 221 172 140 194 189 178 180 180 164 163 160 160 149 164 145 133 150 139 122 132 129 148 154 124 151 111 119 115 136 128 144 139 150 134 132 148 118 121 131 114 135 123 114
236 135 180 196 192 190 179 176 177 176 180 170 172 141 169 167 142 127 129 127 138 141 154 147 134 150 141 121 153 123 127 138 136 119 125 127 120 126 111 119 144 133 126 116 132
135 202 200 195 191 177 180 181 181 160 168 150 161 154 139 134 132 166 162 140 148 120 121 113 117 118 122 99 114 125 145 126 133 133 129 129 128 124 107 131 115 117 142 133 111
201 201 193 191 179 180 178 171 162 165 172 152 164 160 150 148 142 134 158 146 134 153 122 142 144 148 144 150 118 122 136 111 137 126 141 154 125 124 128 145 104 102 120 102 140
200 192 188 181 179 177 163 174 165 172 155 150 169 162 144 165 119 128 164 145 137 135 143 118 158 130 147 135 124 123 140 149 144 121 121 123 146 147 137 127 122 116 101 132 104
195 190 184 181 176 169 174 166 169 159 150 170 167 139 151 115 108 146 123 145 121 100 130 163 124 145 113 142 104 126 136 136 124 125 135 116 135 117 132 115 122 106 127 141 132
192 185 181 170 166 158 174 169 168 146 161 133 156 137 118 155 135 118 159 128 120 116 120 158 125 138 146 150 167 139 130 127 136 150 147 128 126 107 142 141 140 138 129 109 105
188 179 177 177 164 154 162 171 170 153 149 141 135 153 122 122 139 122 114 172 150 135 174 123 151 154 126 132 156 163 167 138 166 141 152 148 132 123 124 127 110 113 110 110 99
187 178 180 179 161 158 164 173 151 169 156 123 136 133 130 147 125 141 124 115 140 167 131 162 167 146 165 163 158 138 164 166 132 117 154 136 158 98 117 139 130 131 136 152 169
180 183 177 170 173 161 161 170 163 145 167 172 157 132 151 160 105 126 120 121 137 141 148 146 150 169 175 152 157 143 164 165 101 102 146 102 142 127 130 136 116 140 134 167 167
175 176 175 171 153 162 166 168 169 133 159 171 118 156 90 118 123 140 167 152 123 169 144 139 145 142 148 146 158 159 156 131 112 131 131 127 134 162 131 129 117 129 179 160 174
183 177 175 174 169 176 158 176 169 147 152 96 120 115 103 123 133 118 151 122 153 119 119 138 146 149 167 131 161 165 125 162 134 148 103 118 146 122 108 120 169 173 160 163 167
183 175 169 174 178 155 169 174 160 140 109 164 144 167 109 106 130 140 131 171 133 135 134 175 129 134 168 116 136 144 125 155 171 126 128 129 170 151 170 179 173 156 154 160 172
186 180 174 170 180 174 160 156 172 120 163 120 162 127 129 152 130 101 122 155 122 130 142 132 165 174 103 155 151 169 165 167 166 153 129 126 150 151 166 167 142 149 159 174 179
184 176 178 171 168 166 178 165 160 154 116 144 149 113 155 127 121 117 112 115 116 103 163 118 157 150 157 146 156 171 172 165 153 130 124 141 150 166 139 150 169 178 179 179 167
184 180 145 182 162 167 181 169 170 140 174 165 150 123 130 131 131 149 139 128 147 125 126 129 173 140 155 149 142 151 167 183 144 132 163 165 162 167 166 170 176 173 169 157 190
192 181 182 186 173 167 177 171 167 172 159 172 171 124 162 119 129 139 153 130 138 163 146 162 156 149 160 176 156 158 173 159 161 161 168 166 169 177 174 179 75 163 178 134 153
157 191 175 162 167 181 168 178 173 174 166 167 166 169 165 175 139 169 171 156 156 157 166 169 163 143 153 165 165 159 156 164 168 170 162 168 168 170 139 177 166 151 150 158 162
192 184 190 189 171 144 184 175 179 179 173 167 172 167 160 157 147 138 164 148 156 159 150 152 158 156 157 160 158 151 161 168 169 174 121 172 186 164 147 163 159 149 148 147 162
196 192 179 184 189 181 185 175 180 173 161 173 151 155 171 166 149 148 149 148 150 174 156 159 164 143 149 153 162 165 166 133 152 145 175 155 108 169 119 105 79 119 174 189 187
149 187 186 200 183 154 187 184 172 168 176 180 178 176 175 174 173 173 172 179 181 158 153 180 179 172 166 157 166 166 158 145 146 180 178 178 108 74 141 175 178 186 183 189 190
143 199 177 144 163 171 179 175 183 166 160 158 163 147 145 172 171 158 155 160 132 175 176 164 147 155 176 153 127 144 149 175 177 163 185 176 165 210 176 183 185 186 192 192 183
137 133 161 187 142 127 149 162 157 177 156 161 157 175 175 177 173 161 162 169 177 174 154 147 120 174 176 174 174 172 175 172 181 195 202 194 180 177 188 188 194 195 193 200 205
151 206 210 114 114 112 144 145 169 148 180 181 155 147 153 151 168 181 183 188 184 192 188 187 186 185 183 178 155 182 175 154 69 187 178 179 185 186 194 195 191 199 207 207 228
160 206 204 203 148 208 151 207 151 189 177 174 152 171 151 153 163 176 184 190 134 132 186 183 183 190 187 168 205 209 173 174 165 179 186 189 193 193 198 201 206 214 198 212 213
196 174 175 198 180 184 128 187 167 184 183 131 142 158 159 175 181 164 153 168 187 196 193 190 181 181 186 179 186 176 185 185 186 187 197 202 203 205 193 197 214 214 214 217 206
Wind_Speed
20 34 35 30 27 24 29 28 27 25 23 22 22 19 18 18 13 11 12 16 15 15 13 13 15 7 16 13 14 9 17 13 18 20 19 16 21 22 20 19 27 27 23 15 39
23 38 36 19 16 30 30 26 27 27 21 21 20 18 18 16 18 15 16 12 14 14 15 8 15 14 7 16 17 18 16 17 16 16 16 19 21 19 20 16 27 25 27 26 15
38 14 21 32 32 32 28 27 28 27 24 23 21 18 18 16 17 14 14 14 15 17 11 10 13 10 12 17 15 18 20 16 17 23 20 18 19 21 21 18 32 33 35 17 36
15 31 32 33 34 30 30 29 28 24 24 21 24 22 20 18 16 12 11 16 18 19 16 18 16 16 17 24 20 20 19 21 20 20 22 24 24 23 29 31 18 21 40 32 28
31 33 33 34 32 31 31 27 25 25 26 23 22 25 22 22 15 15 16 21 18 17 22 21 19 18 20 19 26 26 24 28 23 24 28 31 28 28 33 25 33 30 34 38 39
34 32 33 33 32 32 26 30 26 27 25 23 23 25 17 19 22 20 18 20 17 17 17 23 21 26 22 26 28 27 26 30 31 31 28 33 34 35 38 38 37 31 35 41 30
34 34 35 35 35 31 32 30 30 28 23 25 25 18 24 27 21 24 19 22 19 17 20 23 26 24 35 28 35 27 29 31 30 30 34 29 40 29 40 34 41 29 49 37 55
35 36 35 34 33 27 33 33 34 22 29 25 27 27 21 25 24 26 23 20 27 33 34 28 31 24 28 29 32 33 32 34 39 39 38 37 38 41 43 41 48 48 47 35 47
38 38 38 39 36 27 32 35 35 28 30 25 29 28 30 29 22 29 21 29 28 27 32 37 30 32 33 32 33 36 38 37 41 41 42 43 36 43 45 44 44 44 43 43 43
40 40 42 41 36 32 37 38 33 35 30 32 32 23 31 27 31 28 32 37 27 34 33 34 38 29 40 39 38 35 44 43 42 38 45 45 50 51 46 48 51 56 57 55 62
42 44 44 41 44 35 36 39 38 28 37 34 34 31 31 33 16 35 38 42 33 32 30 29 38 45 46 38 41 35 45 47 38 41 46 45 52 45 46 47 53 54 60 63 64
44 45 47 45 33 39 40 41 42 35 36 38 32 36 36 26 32 38 39 39 40 45 39 34 43 37 43 40 44 44 46 43 47 48 52 54 60 61 53 52 57 60 66 63 67
49 48 49 49 47 50 38 47 45 37 36 33 32 32 26 35 37 30 41 37 44 34 34 42 41 44 52 44 51 52 42 53 50 55 49 52 63 61 52 53 67 71 67 68 71
52 50 48 51 53 39 49 50 45 38 28 46 41 46 29 28 42 42 43 50 44 43 45 57 40 48 58 44 48 51 50 52 61 53 58 51 59 80 71 73 73 69 67 71 78
55 54 53 50 55 55 46 45 52 37 50 40 51 44 45 43 47 36 43 50 42 46 50 48 57 61 43 56 55 65 63 64 63 55 59 59 55 73 75 73 66 68 74 80 83
57 54 57 54 53 53 58 53 51 53 43 47 48 39 51 45 46 43 43 45 45 40 58 47 59 59 62 57 63 71 70 66 58 57 60 63 64 75 69 74 81 80 81 82 79
60 58 42 62 51 55 62 59 59 47 62 61 54 49 53 53 55 56 56 54 57 55 53 54 68 62 68 64 61 66 76 79 62 62 72 73 73 80 79 81 81 80 78 76 88
65 61 63 64 62 59 65 63 60 67 57 66 67 48 65 49 56 57 62 59 65 67 66 69 71 67 74 80 73 76 84 72 69 69 75 78 80 83 84 87 24 74 85 78 82
47 69 63 56 59 70 62 69 69 72 64 66 65 68 69 74 63 72 73 72 73 73 74 74 74 69 77 83 85 80 78 86 83 82 76 83 82 84 74 90 80 78 81 85 88
68 66 72 73 65 50 73 70 74 75 73 70 72 69 68 70 67 64 77 76 79 80 72 72 74 77 81 86 87 79 88 92 91 89 58 86 91 86 78 84 87 84 87 76 92
72 73 65 71 77 73 76 72 77 73 70 77 68 69 80 80 75 74 75 76 78 92 82 82 84 71 77 82 92 90 92 73 83 76 93 78 56 94 58 68 24 67 97 99 100
55 71 69 81 75 62 80 80 73 74 79 81 82 85 85 86 86 89 90 94 94 87 80 98 95 93 92 89 97 98 91 85 83 105 101 103 70 30 84 99 98 102 102 104 105
57 83 72 57 66 72 77 75 83 78 79 78 82 76 76 90 86 83 84 93 64 97 99 95 77 83 96 89 77 85 92 106 108 100 108 104 98 106 106 106 107 108 110 110 103
64 63 71 83 62 57 65 73 74 85 77 80 72 91 93 95 96 90 95 100 102 102 87 83 69 102 99 104 105 103 107 108 110 111 116 108 111 113 114 114 115 113 114 117 119
66 86 89 49 52 53 72 74 85 72 91 92 86 82 87 84 99 101 106 106 103 109 109 111 107 111 108 107 96 107 106 84 22 114 115 110 115 120 119 120 117 120 121 121 119
78 85 87 88 81 95 85 93 85 96 94 94 90 97 94 93 100 104 109 110 77 82 112 114 111 115 111 106 119 118 95 115 112 117 122 123 119 125 127 126 125 124 118 121 121
87 88 82 87 92 95 71 97 93 100 99 74 82 98 99 107 112 98 92 104 112 113 115 117 116 117 115 117 118 99 119 124 125 127 130 129 128 128 120 122 128 126 125 125 121
Wind_Direction
221 164 168 167 167 178 165 167 175 177 180 171 169 182 176 168 183 181 181 203 208 207 222 227 231 240 241 278 259 318 276 297 272 275 320 315 312 323 329 324 322 323 330 330 317
191 166 166 190 236 170 173 182 181 178 199 195 196 188 196 186 205 207 214 197 206 219 233 231 247 241 278 255 263 268 271 274 312 307 300 315 317 301 293 283 315 279 313 333 254
166 244 182 172 173 175 183 188 187 188 180 192 181 200 183 185 201 202 208 212 228 242 226 242 260 267 268 262 291 269 270 294 292 274 297 300 285 312 251 307 295 300 324 308 301
247 177 174 173 176 189 186 186 185 200 199 204 203 203 209 201 205 221 215 235 238 235 233 240 243 247 255 274 278 268 292 274 284 288 295 301 303 299 255 305 275 315 287 289 255
184 178 179 179 189 189 190 198 205 211 198 214 212 214 218 224 216 219 228 240 242 245 256 267 267 271 275 279 263 267 281 263 286 290 294 286 301 301 302 293 253 264 308 254 287
184 186 184 189 192 193 208 200 211 201 215 217 214 217 206 220 213 219 238 239 258 260 269 269 272 255 268 275 277 266 282 284 285 280 283 289 280 280 286 297 304 304 257 296 264
189 189 189 192 195 204 203 214 212 216 220 220 219 213 234 236 250 240 228 254 265 280 266 270 254 279 261 282 275 273 283 285 283 287 282 292 286 297 284 288 301 256 290 304 287
193 194 196 207 212 221 208 217 221 219 230 197 234 228 244 238 230 234 253 235 237 242 259 272 255 276 279 281 286 280 278 282 281 289 282 282 284 264 284 282 284 288 290 285 269
198 201 204 205 216 230 225 219 220 233 223 220 226 238 226 225 244 258 248 270 266 270 282 260 281 285 263 276 286 290 294 273 298 280 292 290 276 286 291 291 292 290 287 288 266
202 208 206 209 226 233 230 222 232 231 247 222 221 241 221 254 232 254 247 263 271 280 260 285 288 283 290 292 291 282 298 300 282 296 290 283 296 282 291 285 281 281 288 305 315
211 209 214 221 219 234 237 230 234 230 243 240 248 222 258 262 283 236 253 253 266 275 282 284 280 290 293 287 292 284 297 299 274 276 288 274 284 283 279 287 284 291 284 312 313
218 217 218 223 243 238 236 239 235 225 249 245 243 257 262 275 260 259 274 273 278 280 270 266 280 274 285 279 293 294 293 276 278 280 285 288 294 302 287 289 284 294 310 307 313
217 221 224 226 231 228 243 235 239 248 250 238 248 238 256 254 265 270 265 272 270 267 268 271 280 285 288 274 293 294 277 289 293 292 277 293 301 284 280 286 306 309 307 310 312
221 227 232 230 228 244 238 236 246 239 251 253 248 256 265 267 256 264 264 275 268 275 272 281 284 271 289 287 286 291 289 291 296 290 289 292 305 303 306 305 307 304 305 309 311
224 228 233 239 232 237 246 248 244 252 252 258 258 249 252 267 256 263 279 276 282 279 275 279 289 286 265 289 287 292 292 293 295 293 286 288 301 300 302 303 298 301 305 308 311
228 233 234 239 243 245 240 251 252 250 246 251 257 266 266 271 274 276 273 276 276 262 285 280 285 284 287 286 289 290 290 292 292 286 284 294 298 298 295 298 302 304 306 308 307
231 235 243 237 249 248 243 250 251 262 251 257 263 263 264 267 270 273 271 274 282 278 281 283 284 284 287 289 289 290 291 289 286 285 293 299 300 299 300 299 301 303 305 300 307
233 237 238 238 244 251 247 251 254 254 259 258 262 259 268 261 270 269 275 275 277 281 279 281 283 286 285 287 288 290 289 293 293 295 298 298 298 299 300 300 295 301 304 291 298
250 236 242 250 249 245 252 250 253 256 260 262 264 266 270 270 271 277 277 274 275 275 276 277 279 287 287 286 288 291 293 293 296 297 297 296 298 300 290 300 300 294 293 299 301
237 241 240 243 251 257 248 253 254 256 260 264 265 267 268 270 271 277 273 277 277 278 281 282 280 282 285 286 287 291 291 290 293 295 277 297 299 295 291 297 298 294 294 299 298
240 242 249 248 247 251 251 256 257 260 261 263 265 266 267 268 272 275 275 277 279 275 282 283 282 285 287 288 288 286 291 284 290 291 296 290 293 298 295 289 289 291 300 302 304
257 249 250 246 253 260 254 256 259 260 262 262 263 265 267 267 267 269 270 273 273 279 282 279 279 281 282 286 287 289 292 292 293 295 297 298 281 296 288 297 299 301 300 303 303
265 248 254 263 259 258 257 259 259 263 266 267 264 267 269 266 271 274 275 274 281 274 275 280 287 285 281 282 283 292 291 291 293 295 296 294 295 297 296 299 299 299 301 301 300
265 268 260 254 265 264 260 263 263 259 265 266 269 267 268 268 270 273 274 273 274 277 280 280 277 284 285 285 286 289 289 291 292 294 292 297 296 296 298 298 298 300 301 301 301
263 248 250 270 276 279 271 266 266 268 263 268 269 268 269 274 273 271 272 274 276 277 280 282 284 284 285 286 284 287 289 289 279 290 292 294 294 294 296 297 298 300 299 300 298
258 255 255 256 271 262 269 263 269 265 266 268 272 270 276 276 274 274 276 277 278 279 281 282 283 284 285 286 287 287 291 290 290 293 293 293 295 294 295 295 297 297 298 298 298
259 261 262 260 263 263 269 266 268 267 269 272 274 274 275 271 272 274 275 279 277 279 280 282 283 284 285 285 285 290 289 291 291 290 291 291 291 292 293 295 296 298 298 298 299